Location: Cold Norton
(51.6667°N, 0.6667°E)
Time: 17:32:03
(UTC+00:00)

Landsat 7 - Pass Details

Date: 18 November 2025
Orbit: 680 x 682 km, 97.9° (Epoch: 09 December)

Event Time Altitude Azimuth Distance (km) Brightness Sun altitude
Rises 16:48:18 0° 146° (SE) 3,034 7.0 -7.1°
Reaches altitude 10° 16:50:35 10° 140° (SE) 2,123 6.1 -7.4°
Maximum altitude 16:55:01 46° 68° (ENE) 917 4.0 -8.0°
Drops below altitude 10° 16:59:28 10° 356° (N) 2,137 6.2 -8.7°
Sets 17:01:47 0° 351° (N) 3,056 7.0 -9.0°
